TOURFACTS.DK  
Stats and Facts from Tour de France.

Tour de France 2017 starts in 35 days
  Riders   Stages   Teams   Summits   Yearly  


 
Search by year

 After:  2016 - Stage 21:   14626 starters.
  5086 different riders.
  632 teams.
  2211 stages.
  454 restdays.
  436049.60 km.
  5622 abandonnees.


Top 3
Christopher Froome89:04:48
Romain Bardet89:08:53
Nairo Quintana89:09:09
Rafal Majka209 pt.
Thomas De Gendt130 pt.
Jarlinson Pantano ..121 pt.
Peter Sagan470 pt.
Marcel Kittel228 pt.
Michael Matthews199 pt.
Adam Yates89:09:30
Louis Meintjes89:11:46
Emanuel Buchmann89:52:28
Facts from Tour de France 2016
  |   Stages.  |   Stage winners.  |   Days in yellow  |   Average speed.  |   Route.  |   Teams.  |   All riders.  |   Rookies.  |   Withdrawls.  |  

  |   GC.  |   Polka  |   Green  |   White  |   Summits. (In tour)  |   Summits. (Points)  |   Miscellaneous.  |  

Stage 9 on 10 - 07 - 2016
         Owning:    Christopher Froome      Rafal Majka      Mark Cavendish      Adam Yates  

Pick a stage:  1 2 3 4 5 6 7 8 9 10 11 12 13 14 15 16 17 18 19 20 21
  Vielha Val d'AranAndorre Arcalis | Dist: 184.00 km.
Cat: 1Puerto de la BonaiguaFRAThibaut Pinot10 points 
Cat: 1Puerto de CantoBELThomas De Gendt10 points 
Cat: 2Côte de la ComellaBELThomas De Gendt5 points 
Cat: 1Col de BeixalisFRAThibaut Pinot10 points 
Cat: HAndorre ArcalisNLDTom Dumoulin50 points 

Average speed for all riders in stage:  32,346 km./hr.
    Place:Name:Team:Time:Km/h:
NLDTom DumoulinDEUTeam Giant Alpecin05:16:24  +  00:00:00=34,893 
PRTRui CostaITALampre-Merida05:17:02  +  00:00:38=34,823 
POLRafal MajkaRUSTinkoff05:17:02  +  00:00:38=34,823 
4 ESPDaniel NavarroFRACofidis – Solutions Crédits05:18:03  +  00:01:39=34,712 
5 COLWinner AnaconaESPMovistar Team05:18:21  +  00:01:57=34,679 
6 FRAThibaut PinotFRAFDJ05:18:54  +  00:02:30=34,619 
7 NZLGeorge BennettNLDTeam Lotto NL - Jumbo05:19:12  +  00:02:48=34,586 
8 ITADiego RosaKAZAstana Pro Team05:19:16  +  00:02:52=34,579 
9 CHEMathias FrankCHEIAM Cycling05:20:08  +  00:03:44=34,486 
10 ENGAdam YatesAUSORICA BikeExchange05:22:59  +  00:06:35=34,181 
11 KENChristopher FroomeGBRSky Procycling05:22:59  +  00:06:35=34,181 
12 COLNairo QuintanaESPMovistar Team05:22:59  +  00:06:35=34,181 
13 AUSRichie PorteUSABMC Racing Team05:23:01  +  00:06:37=34,178 
14 ENGDaniel MartinBELEtixx - Quick Step05:23:01  +  00:06:37=34,178 
15 ESPJesus HerradaESPMovistar Team05:23:01  +  00:06:37=34,178 
16 COLSergio Luis HenaoGBRSky Procycling05:23:20  +  00:06:56=34,144 
17 FRARomain BardetFRAAg2r La Mondiale05:23:20  +  00:06:56=34,144 
18 NLDBauke MollemaUSATrek – Segafredo05:23:20  +  00:06:56=34,144 
19 ZAFLouis MeintjesITALampre-Merida05:23:20  +  00:06:56=34,144 
20 ESPJoaquim RodriguezRUSTeam Katusha05:23:20  +  00:06:56=34,144 
58 ITADomenico PozzovivoFRAAg2r La Mondiale05:23:20  +  00:06:56=34,144 
59 LUXBen GastauerFRAAg2r La Mondiale05:23:20  +  00:06:56=34,144 
60 FRASylvain ChavanelFRADirect Energie05:23:20  +  00:06:56=34,144 
61 SVKPeter SaganRUSTinkoff05:23:20  +  00:06:56=34,144 
21 USATejay Van GarderenUSABMC Racing Team05:23:37  +  00:07:13=34,114 
22 CZERoman KreuzigerRUSTinkoff05:23:41  +  00:07:17=34,107 
23 ESPAlejandro ValverdeESPMovistar Team05:23:41  +  00:07:17=34,107 
24 FRAAlexis VuillermozFRAAg2r La Mondiale05:23:41  +  00:07:17=34,107 
25 WALGeraint ThomasGBRSky Procycling05:23:48  +  00:07:24=34,095 
26 ITAVincenzo NibaliKAZAstana Pro Team05:23:59  +  00:07:35=34,076 
27 ITAFabio AruKAZAstana Pro Team05:23:59  +  00:07:35=34,076 
28 FRAWarren BarguilDEUTeam Giant Alpecin05:23:59  +  00:07:35=34,076 
29 ERINatnael Teweldemedhin BerhaneZAFDimension Data05:24:51  +  00:08:27=33,985 
22 FRAPierre RollandUSATeam Cannondale Drapac05:25:05  +  00:08:41=33,961 
30 LUXFränk SchleckUSATrek – Segafredo05:25:05  +  00:08:41=33,961 
31 CHESébastien ReichenbachFRAFDJ05:25:05  +  00:08:41=33,961 
33 BELThomas De GendtBELLotto Soudal05:25:14  +  00:08:50=33,945 
34 ESPMikel NieveGBRSky Procycling05:25:54  +  00:09:30=33,875 
35 ITADamiano CarusoUSABMC Racing Team05:26:05  +  00:09:41=33,856 
36 NLDStef ClementCHEIAM Cycling05:26:08  +  00:09:44=33,851 
37 DEUEmanuel BuchmannDEUBora-Argon 1805:26:11  +  00:09:47=33,846 
38 BELJurgen Van Den BroeckRUSTeam Katusha05:26:32  +  00:10:08=33,810 
39 NLDWilco KeldermanNLDTeam Lotto NL - Jumbo05:26:32  +  00:10:08=33,810 
40 BELJan BakelantsFRAAg2r La Mondiale05:26:42  +  00:10:18=33,792 
41 BELSerge PauwelsZAFDimension Data05:27:15  +  00:10:51=33,736 
42 ESPLuis León SánchezKAZAstana Pro Team05:29:17  +  00:12:53=33,527 
43 ESTTanel KangertKAZAstana Pro Team05:29:30  +  00:13:06=33,505 
44 CHESteve MorabitoFRAFDJ05:30:14  +  00:13:50=33,431 
45 ESPHaimar ZubeldiaUSATrek – Segafredo05:30:14  +  00:13:50=33,431 
46 ARGEduardo SepulvedaFRAFortuneo - Vital Concept05:30:23  +  00:13:59=33,416 
47 NLDWout PoelsGBRSky Procycling05:30:25  +  00:14:01=33,412 
48 ESPDaniel MorenoESPMovistar Team05:31:33  +  00:15:09=33,298 
49 ZAFDaryl ImpeyAUSORICA BikeExchange05:32:00  +  00:15:36=33,253 
50 ESPRubén PlazaAUSORICA BikeExchange05:32:00  +  00:15:36=33,253 
51 POLBartosz HuzarskiDEUBora-Argon 1805:32:19  +  00:15:55=33,221 
52 FRANicolas EdetFRACofidis – Solutions Crédits05:33:57  +  00:17:33=33,059 
53 FRAJérôme CoppelCHEIAM Cycling05:34:06  +  00:17:42=33,044 
54 ETHTsgabu Gebremaryan GrmayITALampre-Merida05:35:27  +  00:19:03=32,911 
55 ESPMikel Landa MeanaGBRSky Procycling05:35:27  +  00:19:03=32,911 
56 NLDLaurens ten DamDEUTeam Giant Alpecin05:35:35  +  00:19:11=32,898 
57 FRAArthur VichotFRAFDJ05:37:03  +  00:20:39=32,755 
62 USAPeter StetinaUSATrek – Segafredo05:37:38  +  00:21:14=32,698 
63 AUTGeorg PreidlerDEUTeam Giant Alpecin05:37:38  +  00:21:14=32,698 
64 RUSIlnur ZakarinRUSTeam Katusha05:37:38  +  00:21:14=32,698 
65 FRAAmaël MoinardUSABMC Racing Team05:37:38  +  00:21:14=32,698 
66 SVNJan PolancITALampre-Merida05:37:38  +  00:21:14=32,698 
67 FRAJulian AlaphilippeBELEtixx - Quick Step05:37:38  +  00:21:14=32,698 
68 AUSAdam HansenBELLotto Soudal05:37:38  +  00:21:14=32,698 
69 FRATony GallopinBELLotto Soudal05:37:38  +  00:21:14=32,698 
70 DEUSimon GeschkeDEUTeam Giant Alpecin05:38:31  +  00:22:07=32,613 
71 FRAArnold JeannessonFRACofidis – Solutions Crédits05:38:43  +  00:22:19=32,594 
72 KAZAlexey LutsenkoKAZAstana Pro Team05:38:43  +  00:22:19=32,594 
73 FRAAnthony RouxFRAFDJ05:38:43  +  00:22:19=32,594 
74 USALawson CraddockUSATeam Cannondale Drapac05:38:43  +  00:22:19=32,594 
75 DNKChris Anker SørensenFRAFortuneo - Vital Concept05:39:22  +  00:22:58=32,531 
76 FRAFabrice JeandesbozFRADirect Energie05:39:22  +  00:22:58=32,531 
77 FRAJérémy RoyFRAFDJ05:39:48  +  00:23:24=32,490 
78 FRARomain SicardFRADirect Energie05:40:34  +  00:24:10=32,417 
79 FRABrice FeilluFRAFortuneo - Vital Concept05:42:12  +  00:25:48=32,262 
80 HRVRobert KiserlovskiRUSTinkoff05:42:12  +  00:25:48=32,262 
81 HRVKristijan DurasekITALampre-Merida05:42:12  +  00:25:48=32,262 
82 DNKJakob FuglsangKAZAstana Pro Team05:44:40  +  00:28:16=32,031 
83 ITAPaolo TiralongoKAZAstana Pro Team05:44:40  +  00:28:16=32,031 
84 DNKMichael ValgrenRUSTinkoff05:44:40  +  00:28:16=32,031 
85 UKRAndriy GrivkoKAZAstana Pro Team05:44:40  +  00:28:16=32,031 
86 FRACyril GautierFRAAg2r La Mondiale05:44:40  +  00:28:16=32,031 
87 FRAAnthony DelaplaceFRAFortuneo - Vital Concept05:44:40  +  00:28:16=32,031 
88 SVNLuka PibernikITALampre-Merida05:44:40  +  00:28:16=32,031 
89 ESPAlberto LosadaRUSTeam Katusha05:46:07  +  00:29:43=31,897 
90 ESPAngel ViciosoRUSTeam Katusha05:46:07  +  00:29:43=31,897 
91 FRAAngelo TulikFRADirect Energie05:46:07  +  00:29:43=31,897 
92 FRABryan CoquardFRADirect Energie05:46:07  +  00:29:43=31,897 
93 CZEPetr VakocBELEtixx - Quick Step05:46:07  +  00:29:43=31,897 
94 BELOliver NaesenCHEIAM Cycling05:47:34  +  00:31:10=31,764 
95 NLDRoy CurversDEUTeam Giant Alpecin05:47:34  +  00:31:10=31,764 
96 AUSSimon GerransAUSORICA BikeExchange05:47:34  +  00:31:10=31,764 
97 CHEMichael SchärUSABMC Racing Team05:47:34  +  00:31:10=31,764 
98 ESPLuis Angel MateFRACofidis – Solutions Crédits05:47:34  +  00:31:10=31,764 
99 NLDDylan Van BaarleUSATeam Cannondale Drapac05:47:34  +  00:31:10=31,764 
100 NLDTom-Jelte SlagterUSATeam Cannondale Drapac05:47:34  +  00:31:10=31,764 
101 CANAntoine DuchesneFRADirect Energie05:47:34  +  00:31:10=31,764 
102 DEUMarcus BurghardtUSABMC Racing Team05:47:34  +  00:31:10=31,764 
103 AUTPatrick KonradDEUBora-Argon 1805:47:34  +  00:31:10=31,764 
104 DEUAndreas SchillingerDEUBora-Argon 1805:47:34  +  00:31:10=31,764 
105 ITACesare BenedettiDEUBora-Argon 1805:47:34  +  00:31:10=31,764 
106 CZEJan BártaDEUBora-Argon 1805:47:34  +  00:31:10=31,764 
107 USAAlex HowesUSATeam Cannondale Drapac05:48:12  +  00:31:48=31,706 
108 USABrent BookwalterUSABMC Racing Team05:48:12  +  00:31:48=31,706 
109 FRAArmindo FonsecaFRAFortuneo - Vital Concept05:48:12  +  00:31:48=31,706 
110 FRAFlorian VachonFRAFortuneo - Vital Concept05:48:12  +  00:31:48=31,706 
111 JPNYukiya ArashiroITALampre-Merida05:48:12  +  00:31:48=31,706 
112 FRAJérôme CousinFRACofidis – Solutions Crédits05:48:12  +  00:31:48=31,706 
113 COLJarlinson Pantano GomezCHEIAM Cycling05:48:27  +  00:32:03=31,683 
114 AUSMathew HaymanAUSORICA BikeExchange05:48:27  +  00:32:03=31,683 
115 AUSLuke DurbridgeAUSORICA BikeExchange05:48:27  +  00:32:03=31,683 
116 FRAPierre-Luc PérichonFRAFortuneo - Vital Concept05:48:46  +  00:32:22=31,654 
117 DEUPaul VossDEUBora-Argon 1805:49:05  +  00:32:41=31,626 
118 FRACyril LemoineFRACofidis – Solutions Crédits05:51:50  +  00:35:26=31,378 
119 FRAWilliam BonnetFRAFDJ05:51:50  +  00:35:26=31,378 
120 BELSep VanmarckeNLDTeam Lotto NL - Jumbo05:51:50  +  00:35:26=31,378 
121 FRAYohann GèneFRADirect Energie05:51:50  +  00:35:26=31,378 
122 ITAFabio SabatiniBELEtixx - Quick Step05:51:50  +  00:35:26=31,378 
123 NLDBert-Jan LindemanNLDTeam Lotto NL - Jumbo05:51:50  +  00:35:26=31,378 
124 WALLuke RoweGBRSky Procycling05:51:50  +  00:35:26=31,378 
125 NLDDylan GroenewegenNLDTeam Lotto NL - Jumbo05:51:50  +  00:35:26=31,378 
126 DEURobert WagnerNLDTeam Lotto NL - Jumbo05:51:50  +  00:35:26=31,378 
127 AUSMichael MatthewsAUSORICA BikeExchange05:51:50  +  00:35:26=31,378 
128 ITAOscar GattoRUSTinkoff05:51:50  +  00:35:26=31,378 
129 AUSRohan DennisUSABMC Racing Team05:51:50  +  00:35:26=31,378 
130 CHEFabian CancellaraUSATrek – Segafredo05:51:50  +  00:35:26=31,378 
131 ENGIan StannardGBRSky Procycling05:51:50  +  00:35:26=31,378 
132 CHEReto HollensteinCHEIAM Cycling05:51:50  +  00:35:26=31,378 
133 DEUMarcel KittelBELEtixx - Quick Step05:51:50  +  00:35:26=31,378 
134 PRTNelson OliveiraESPMovistar Team05:51:50  +  00:35:26=31,378 
135 NLDRamon SinkeldamDEUTeam Giant Alpecin05:51:50  +  00:35:26=31,378 
136 FRAMickaël CherelFRAAg2r La Mondiale05:51:50  +  00:35:26=31,378 
137 DNKMatti BreschelUSATeam Cannondale Drapac05:51:50  +  00:35:26=31,378 
138 ESPMarkel IrizarUSATrek – Segafredo05:51:50  +  00:35:26=31,378 
139 FRAGeoffrey SoupeFRACofidis – Solutions Crédits05:51:50  +  00:35:26=31,378 
140 ESPImanol ErvitiESPMovistar Team05:51:50  +  00:35:26=31,378 
141 FRAAdrien PetitFRADirect Energie05:51:50  +  00:35:26=31,378 
142 IRLChristopher Juul JensenAUSORICA BikeExchange05:51:50  +  00:35:26=31,378 
143 BELEdward TheunsUSATrek – Segafredo05:51:50  +  00:35:26=31,378 
144 ERIDaniel TeklehaimanotZAFDimension Data05:51:50  +  00:35:26=31,378 
145 FRAThomas VoecklerFRADirect Energie05:51:50  +  00:35:26=31,378 
146 NLDTimo RoosenNLDTeam Lotto NL - Jumbo05:51:50  +  00:35:26=31,378 
147 DEUTony MartinBELEtixx - Quick Step05:51:50  +  00:35:26=31,378 
148 ZAFReinardt Janse Van RensburgZAFDimension Data05:51:50  +  00:35:26=31,378 
149 SVNKristjan KorenUSATeam Cannondale Drapac05:51:50  +  00:35:26=31,378 
150 BELJens DebusschereBELLotto Soudal05:51:50  +  00:35:26=31,378 
151 POLMaciej BodnarRUSTinkoff05:51:50  +  00:35:26=31,378 
152 BELJürgen RoelandtsBELLotto Soudal05:51:50  +  00:35:26=31,378 
153 NLDSebastian LangeveldUSATeam Cannondale Drapac05:51:50  +  00:35:26=31,378 
154 CHEGregory RastUSATrek – Segafredo05:51:50  +  00:35:26=31,378 
155 BELMaarten WynantsNLDTeam Lotto NL - Jumbo05:51:50  +  00:35:26=31,378 
156 ESPJon Izaguirre InsaustiESPMovistar Team05:51:50  +  00:35:26=31,378 
157 ESPGorka Izaguirre InsaustiESPMovistar Team05:51:50  +  00:35:26=31,378 
158 LTURamunas NavardauskasUSATeam Cannondale Drapac05:51:50  +  00:35:26=31,378 
159 SVNBorut BozicFRACofidis – Solutions Crédits05:51:50  +  00:35:26=31,378 
160 NLDAlbert TimmerDEUTeam Giant Alpecin05:51:50  +  00:35:26=31,378 
161 FRA Alexis GougeardFRAAg2r La Mondiale05:51:50  +  00:35:26=31,378 
162 CHEMartin ElmigerCHEIAM Cycling05:51:50  +  00:35:26=31,378 
163 ITAMatteo BonoITALampre-Merida05:51:50  +  00:35:26=31,378 
164 BLRVasil KiryienkaGBRSky Procycling05:51:50  +  00:35:26=31,378 
165 FRASamuel DumoulinFRAAg2r La Mondiale05:51:50  +  00:35:26=31,378 
166 NOREdvald Boasson HagenZAFDimension Data05:51:50  +  00:35:26=31,378 
167 BELJasper StuyvenUSATrek – Segafredo05:51:50  +  00:35:26=31,378 
168 DEUAndré GreipelBELLotto Soudal05:51:50  +  00:35:26=31,378 
169 DEUPaul MartensNLDTeam Lotto NL - Jumbo05:51:50  +  00:35:26=31,378 
170 ITAMatteo TosattoRUSTinkoff05:51:50  +  00:35:26=31,378 
171 NZLGregory HendersonBELLotto Soudal05:51:50  +  00:35:26=31,378 
172 FRAChristophe LaporteFRACofidis – Solutions Crédits05:51:50  +  00:35:26=31,378 
173 IMNMark CavendishZAFDimension Data05:51:50  +  00:35:26=31,378 
174 BELJulien VermoteBELEtixx - Quick Step05:51:50  +  00:35:26=31,378 
175 BELGreg Van AvermaetUSABMC Racing Team05:51:50  +  00:35:26=31,378 
176 CHEMichael AlbasiniAUSORICA BikeExchange05:51:50  +  00:35:26=31,378 
177 NORVegard BreenFRAFortuneo - Vital Concept05:51:50  +  00:35:26=31,378 
178 BELIljo KeisseBELEtixx - Quick Step05:51:50  +  00:35:26=31,378 
179 ITAJacopo GuarnieriRUSTeam Katusha05:51:50  +  00:35:26=31,378 
180 BRAMaximilano RichezeBELEtixx - Quick Step05:51:50  +  00:35:26=31,378 
181 NORSondre Holst EngerCHEIAM Cycling05:51:50  +  00:35:26=31,378 
182 BELSam BennettDEUBora-Argon 1805:51:50  +  00:35:26=31,378 
183 ITADavide CimolaiITALampre-Merida05:51:50  +  00:35:26=31,378 
184 NORAlexander KristoffRUSTeam Katusha05:51:50  +  00:35:26=31,378 
185 AUSLeigh HowardCHEIAM Cycling05:51:50  +  00:35:26=31,378 
186 ENGDaniel McLayFRAFortuneo - Vital Concept05:51:50  +  00:35:26=31,378 
187 DNKLars BakBELLotto Soudal05:51:50  +  00:35:26=31,378 
188 AUTMarco HallerRUSTeam Katusha05:51:50  +  00:35:26=31,378 
189 DEUJohn DegenkolbDEUTeam Giant Alpecin05:51:50  +  00:35:26=31,378 
190 AUTBernhard EiselZAFDimension Data05:51:50  +  00:35:26=31,378 
191 ENGStephen CummingsZAFDimension Data05:51:50  +  00:35:26=31,378 
192 NZLShane ArchboldDEUBora-Argon 1805:51:50  +  00:35:26=31,378 
193 DEUMarcel SiebergBELLotto Soudal05:51:50  +  00:35:26=31,378 

Withdrawls: 4
 
Rider
Team
Reason
31  ESPAlberto ContadorRUSTinkoffDid not finish
108  AUSMark RenshawZAFDimension DataDid not finish
123  FRAMatthieu LadagnousFRAFDJDid not finish
125  FRACédric PineauFRAFDJDid not finish

Todays birthdays.

1896  Georges Cuvelier
1909  Gaspard Rinaldi
1913  Erich Bautz
1913  Alexandre Pawlisiak
1916  Edmond De Lathouwer
1918  Prosper Depredomme
1929  Eluf Dalgaard
1933  Jean Graczyk
1942  Guy Seyve
1943  Henri Rabaute
1964  Jan Siemons
1966  Andrew Bishop
1975  Andrea Brognara
1984  Mikel Nieve